Home > Weather > Pekanbaru > Past weeks

Flag for Indonesia Weather for the Past 2 Weeks in Pekanbaru, Riau, Indonesia

Now
77 °F

Mostly cloudy.


Feels Like: 78 °F
Forecast: 74 / 85 °F
Wind: 2 mph from North

Location: Pakanbaru / Simpangtiga

Current Time: Feb 8, 2016 at 8:01:02 AM

Latest Report: Feb 8, 2016 at 7:00 AM


Visibility: 4 mi

Pressure: 29.83 "Hg

Humidity: 94%

Dew point: 75 °F

Location of PekanbaruLocation

Historic Weather in Pekanbaru — Graph

°F

Pekanbaru Temperature Yesterday

Maximum temperature yesterday: 84 °F (at 12:00 PM)
Minimum temperature yesterday: 75 °F (at 3:00 AM)
Average temperature yesterday: 78 °F

High & Low Weather Summary for the Past Weeks

 TemperatureHumidityPressure
High91 °F (Jan 24, 1:30 PM)100% (Jan 24, 8:00 AM)29.95 "Hg (Jan 24, 8:00 AM)
Low73 °F (Jan 29, 2:00 AM)52% (Feb 2, 4:30 PM)29.65 "Hg (Feb 5, 3:30 PM)
Average81 °F85%29.80 "Hg
* Reported Jan 24 6:30 AM — Feb 8 6:00 AM, Pekanbaru, Weather by CustomWeather, © 2016

Note: Actual official high and low records may vary slightly from our data, if they occured in-between our weather recording intervals... More about our weather records

Advertising

Pekanbaru Weather History for the Previous 24 Hours

 ConditionsComfort  
Time TempWeatherWind HumidityBarometerVisibility
6:00 AM
Mon, Feb 8
75 °FMostly cloudy.No wind100%29.80 "Hg4 mi
5:30 AM75 °FPassing clouds.No wind100%29.80 "Hg4 mi
5:00 AM75 °FPassing clouds.No wind100%29.80 "Hg4 mi
4:30 AM75 °FPassing clouds.No wind100%29.80 "Hg4 mi
4:00 AM75 °FPassing clouds.No wind100%29.80 "Hg3 mi
3:30 AM75 °FOvercast.No wind100%29.80 "Hg4 mi
3:00 AM75 °FOvercast.No wind100%29.80 "Hg4 mi
2:30 AM75 °FOvercast.No wind100%29.80 "Hg4 mi
2:00 AM75 °FMostly cloudy.No wind100%29.83 "Hg4 mi
1:30 AM75 °FMostly cloudy.2 mph100%29.83 "Hg4 mi
1:00 AM75 °FOvercast.No wind100%29.83 "Hg6 mi
12:30 AM75 °FPartly cloudy.5 mph100%29.86 "Hg4 mi
12:00 AM75 °FPassing clouds.No wind100%29.86 "Hg5 mi
11:30 PM
Sun, Feb 7
75 °FPassing clouds.No wind100%29.86 "Hg5 mi
11:00 PM77 °FPassing clouds.No wind94%29.86 "Hg4 mi
10:30 PM77 °FPassing clouds.No wind94%29.86 "Hg4 mi
10:00 PM77 °FPassing clouds.No wind94%29.86 "Hg4 mi
9:30 PM77 °FLight rain. Passing clouds.No wind94%29.83 "Hg4 mi
9:00 PM77 °FPassing clouds.No wind94%29.83 "Hg5 mi
8:30 PM77 °FLight rain. Passing clouds.No wind94%29.83 "Hg5 mi
8:00 PM77 °FLight rain. Mostly cloudy.2 mph94%29.80 "Hg6 mi
7:30 PM77 °FMostly cloudy.2 mph94%29.80 "HgN/A
7:00 PM77 °FLight rain. Passing clouds.No wind94%29.77 "Hg5 mi
6:00 PM77 °FLight rain. Partly sunny.8 mph94%29.74 "Hg5 mi
5:30 PM77 °FLight rain. Partly sunny.No wind100%29.74 "Hg5 mi
5:00 PM77 °FLight rain. Partly sunny.No wind100%29.74 "Hg3 mi
4:30 PM77 °FThundershowers. Partly sunny.5 mph94%29.71 "Hg1 mi
4:00 PM77 °FRain. Cloudy.12 mph94%29.71 "Hg1 mi
3:30 PM81 °FThundershowers. Mostly cloudy.5 mph89%29.71 "Hg5 mi
3:00 PM77 °FRain. Partly sunny.7 mph94%29.71 "Hg3 mi
2:30 PM77 °FLight rain. Mostly cloudy.14 mph94%29.74 "Hg1 mi
2:00 PM79 °FLight rain. Partly sunny.6 mph94%29.74 "Hg3 mi
1:30 PM82 °FLight rain. Broken clouds.9 mph84%29.74 "HgN/A
1:00 PM84 °FPartly sunny.13 mph79%29.77 "HgN/A
12:30 PM82 °FPassing clouds.13 mph79%29.77 "HgN/A
12:00 PM84 °FScattered clouds.14 mph79%29.80 "HgN/A
11:30 AM82 °FPassing clouds.9 mph84%29.80 "HgN/A
10:30 AM81 °FLight rain. Partly sunny.No wind94%29.83 "Hg4 mi
10:00 AM81 °FPartly sunny.No wind89%29.83 "Hg4 mi
9:00 AM79 °FMostly cloudy.2 mph94%29.83 "HgN/A
8:30 AM79 °FPartly sunny.No wind94%29.80 "Hg4 mi
8:00 AM79 °FPassing clouds.No wind94%29.80 "Hg4 mi
Weather by CustomWeather, © 2016

See weather overviewHow to use our weather pages